SCP
0 0 0 0 0 0 0 0 -0 -0 0 0 0 0 0 0 0 0 0 0 0 0 0 0 0 0 0 0 0 0 0 0 0 0 0 0 0 0
0 0 0 0 0 0 0 0 0 0 0 0 0 0 0 0 0 0 0 0 0 0 0 0 0 0 0 0 0 0 0 0 0 0 0 0 0 0
0 0 0 0 0 0 0 0 0 0 0 0 0 0 0 0 0 0 0 0 0 0 0 0 0 0 0 0 0 0 0 0 0 0 0 0 0 0
0 0 0 0 0 0 0 0 0 0 0 0 0 0 0 0 0 0 0 0 0 0 0 0 0 0 0 0 0 0 0 0 0 0 0 0 0 0
0 0 0 0 0 0 0 0 0 0 0 0 0 0 0 0 0 0 0 0 0 0 0 0 0 0 0 0 0 0 0 0 0 0 0 0 0 0
0 0 0 0 0 0 0 0 0 0 0 0 0 0 0 0 0 0 0 0 0 0 0 0 0 0 0 0 0 0 0 0 0 0 0 0 0 0
1 1 0 0 0 0 0 0 0 0 0 0 0 0 0 0 0 0 0 0 0 0 0 0 0 0 0 0 0 0 0 0 0 0 0 0 0 0
2 2 1 0 0 0 0 0 0 0 0 0 0 0 0 0 0 0 0 0 0 0 0 0 0 0 0 0 0 0 0 0 0 0 0 0 0 0
3 4 2 0 0 0 0 0 0 0 0 0 0 0 0 0 0 0 0 0 0 0 0 0 0 0 0 0 0 0 0 0 0 0 0 0 0 0
6 3 1 0 0 0 0 0 0 0 0 0 0 0 0 0 0 0 0 0 0 0 0 0 0 0 0 0 0 0 0 0 0 0 0 0 0 0
1 0 0 0 0 0 0 0 0 0 0 0 0 0 0 0 0 0 0 0 0 0 0 0 0 0 0 0 0 0 0 0 0 0 0 0 0 0
1 0 0 0 0 0 0 0 0 0 0 0 0 0 0 0 0 0 0 0 0 0 0 0 0 0 0 0 0 0 0 0 0 0 0 -0 -0 0
0 0 0 0 0 0 0 0 0 0 0 0 0 0 0 0 0 0 0 0 0 0 0 0 0 0 0 0 0 0 0 0 0 0 0 0 -0 -0
0 0 0 0 0 0 0 0 0 0 0 0 0 0 0 0 0 0 0 0 0 0 0 0 0 0 0 0 0 0 0 0 0 0 0 0 0 0
0 0 0 0 0 0 0 0 0 0 0 0 0 0 0 0 0 0 0 0 0 0 0 0 0 0 0 0 0 0 0 0 0 0 0 0 0 0
0 0 0 0 0 0 0 0 0 0 0 0 0 0 0 0 0 0 0 0 0 0 0 0 0 0 0 0 0 0 0 0 0 0 0 0 0 0
0 0 0 0 0 0 0 0 0 0 0 0 0 0 0 0 0 0 0 0 0 0 0 0 0 0 0 0 0 0 0 0 0 0 0 0 0 0
0 0 0 0 0 0 0 0 0 0 0 0 0 0 0 0 0 0 0 0 0 0 0 0 0 0 0 0 0 0 0 0 0 0 0 0 0 0
0 0 0 0 0 0 0 0 0 0 0 0 0 0 0 0 0 0 0 0 0 0 0 0 0 0 0 0 0 0 0 0 0 0 0 0 0 0
0 0 0 0 0 0 0 0 0 0 0 -0 -0 0 0 0 0 0 0 0 0 0 0 0 0 0 0 0 0 0 0 0 0 0 0 0 0 0
0 0 0 0 0 0 0 0 0 0 0 0 0 0 0 0 0 0 0 0 0 0 0 0 0 0 0 0 0 0 0 0 0 0 0 0 0 0
0 0 0 0 0 0 0 0 0 0 0 0 0 0 0 0 0 0 0 0 0 0 0 0 0 0 0 0 0 0 0 0 0 0 0 0 0 0
0 0 0 0 0 0 0 0 0 0 0 0 0 0 -0 -0 0 0 0 0 0 0 0 0 0 0 0 0 0 0 0 0 0 0 0 0 0 0
Wind_Speed_500mb
17 20 19 17 16 16 18 21 24 27 27 24 20 37 34 29 35 8 23 21 20 19 12 8 9 10 14 22 27 28 28 29 30 32 35 37 40 56
21 25 21 15 17 16 15 19 22 25 27 11 21 24 26 22 30 19 27 24 20 16 8 4 2 3 3 6 12 20 26 32 33 32 32 33 35 39
31 30 27 28 22 15 16 20 22 23 24 13 20 25 28 27 25 20 22 13 19 14 12 7 2 2 3 2 1 3 9 14 20 24 29 34 37 38
35 33 30 27 28 27 21 24 23 25 27 28 20 24 28 36 35 26 13 10 25 17 15 14 9 6 5 4 6 9 10 10 9 11 18 25 28 30
36 33 31 29 30 20 24 23 25 28 29 26 31 24 16 26 27 25 26 17 17 28 25 21 17 13 11 11 8 6 7 8 10 11 10 14 18 20
40 35 31 30 28 25 28 29 25 26 26 31 25 24 28 29 25 23 20 21 19 19 19 20 18 18 19 18 16 13 11 11 13 13 12 11 13 18
45 43 39 37 32 26 19 22 25 30 26 27 31 29 32 31 33 27 23 20 26 22 20 20 20 14 12 11 17 19 17 17 17 16 17 13 11 11
54 52 43 44 38 31 26 34 34 38 37 30 33 37 39 37 31 31 29 28 25 24 28 24 17 15 17 17 17 18 24 25 25 25 24 20 15 12
56 54 56 51 48 38 31 29 43 49 46 45 41 34 41 45 34 40 32 29 26 20 23 24 24 21 20 29 31 30 32 32 33 30 25 24 23 20
67 67 70 58 49 35 31 27 35 53 57 55 54 39 34 43 50 42 37 42 27 23 23 22 24 18 18 26 28 26 10 8 10 12 15 18 22 25
82 82 75 60 56 62 61 88 67 56 50 57 58 44 42 46 45 34 33 31 31 29 28 25 22 19 17 18 19 9 4 3 7 11 12 14 20 28
89 93 85 75 88 84 79 79 68 55 54 47 53 54 52 55 44 42 34 36 32 27 31 26 22 21 20 23 20 19 17 13 17 15 21 24 22 24
94 97 93 83 78 79 63 62 57 51 50 51 40 53 57 56 50 50 43 38 31 29 30 27 24 22 21 13 21 22 17 22 22 20 24 24 24 30
78 90 89 69 75 72 66 69 64 56 54 53 36 42 45 45 46 56 49 51 25 28 30 31 23 22 23 24 24 20 19 23 24 22 22 25 28 26
73 82 68 55 45 60 55 66 66 60 49 39 41 45 46 45 40 43 50 50 47 39 32 35 37 26 23 23 24 23 22 26 27 29 31 21 26 26
84 69 60 36 47 65 63 65 61 60 56 50 50 46 46 45 48 46 42 38 43 37 45 45 37 34 33 28 31 30 30 28 22 33 27 27 26 28
75 69 54 49 68 73 72 73 70 60 54 56 60 49 48 51 49 49 47 40 43 40 36 38 40 40 39 37 37 36 36 39 32 34 32 31 26 28
54 63 57 61 64 68 77 79 80 73 68 68 57 55 54 53 52 49 49 49 44 40 45 43 44 38 35 39 43 38 37 34 34 37 35 30 33 30
55 61 57 58 65 68 70 80 97 93 86 83 77 61 58 62 57 56 54 46 49 48 48 45 45 45 42 38 29 38 42 35 30 33 33 38 40 33
66 67 62 67 75 80 74 86 86 89 87 81 76 75 64 67 66 61 56 54 50 49 48 42 40 46 50 36 37 34 25 28 29 33 35 38 40 42
72 73 77 77 76 78 76 83 84 84 88 81 75 83 76 68 62 64 57 53 48 48 49 51 47 46 41 36 38 40 38 45 40 40 39 37 37 41
68 75 77 84 88 85 82 80 84 81 88 95 93 81 78 67 71 64 55 51 56 58 54 44 37 39 38 45 42 44 40 40 48 45 48 47 47 45
65 70 82 83 85 84 83 84 91 95 98 100 82 83 69 69 72 67 59 62 56 60 40 45 41 36 42 43 46 37 45 41 39 45 52 50 48 49
Wind_Direction_500mb
228 233 237 234 246 248 247 238 244 259 245 197 201 212 220 237 251 247 266 284 298 305 310 292 274 260 247 243 244 245 248 251 252 250 249 250 247 243
224 236 243 229 244 247 237 230 230 242 266 227 211 203 220 231 254 200 235 275 290 296 289 290 323 328 299 269 254 251 251 252 254 254 253 254 255 253
220 231 251 246 238 241 234 219 220 223 232 255 198 180 193 206 230 211 249 262 291 302 257 251 257 1 25 27 343 254 249 256 258 260 260 258 257 258
232 236 249 252 251 228 221 226 224 224 220 231 225 236 229 221 226 220 212 243 255 267 291 251 256 285 316 337 9 9 7 359 335 278 255 256 259 259
231 238 246 249 252 238 240 233 239 227 231 221 227 218 229 206 217 208 211 215 225 255 267 258 247 267 290 297 292 311 320 329 332 330 304 271 265 273
230 230 240 246 250 252 232 234 224 232 233 226 228 224 210 212 209 209 218 208 227 251 252 256 254 262 265 274 265 275 289 308 329 333 325 304 267 260
226 231 234 243 248 248 241 251 231 237 233 234 232 225 213 208 208 212 222 219 221 209 243 255 248 271 273 281 261 262 275 285 296 314 320 321 310 282
224 226 218 235 240 236 234 223 228 226 232 242 236 231 227 219 213 213 220 219 228 235 221 226 228 232 249 252 246 272 284 282 285 288 292 288 293 299
231 220 225 230 234 230 226 222 231 236 233 222 237 232 229 221 217 212 214 221 219 228 218 216 217 220 223 252 269 278 278 281 288 288 277 269 265 275
227 229 230 235 244 245 242 248 252 241 239 225 225 231 226 227 212 227 215 223 210 213 227 214 209 212 214 245 264 280 273 294 295 290 287 279 270 264
231 238 243 248 248 240 261 282 260 239 232 234 222 225 225 229 218 207 212 203 204 207 225 210 209 211 226 232 261 252 275 310 352 337 344 336 293 276
235 248 248 263 245 246 275 268 244 232 213 228 225 220 224 227 226 197 204 197 200 204 212 210 211 205 223 224 232 262 295 295 321 326 344 345 349 338
246 243 240 246 239 260 257 235 244 228 211 211 220 219 224 225 220 204 195 200 217 222 209 203 210 214 232 224 224 235 252 261 292 308 309 309 320 341
247 246 245 243 271 264 242 241 236 210 204 211 214 208 219 212 210 204 196 201 201 209 190 189 201 214 228 238 242 234 250 249 264 257 281 292 301 305
248 234 249 269 255 237 225 214 202 201 192 205 200 205 214 207 210 213 219 211 209 220 212 207 212 214 228 246 258 264 255 253 252 265 274 254 285 277
244 246 261 258 223 211 207 203 197 207 192 203 197 214 213 211 211 212 217 224 222 227 228 228 230 229 230 241 250 257 258 257 262 276 253 256 273 267
235 243 242 226 217 221 212 197 197 200 202 206 204 210 219 215 215 214 216 219 223 224 231 231 236 241 244 242 248 253 264 271 264 271 261 264 259 269
236 240 236 224 209 205 194 191 196 197 203 203 205 219 218 215 212 212 215 219 221 227 230 228 235 238 241 248 252 258 257 258 264 271 238 259 270 273
240 240 223 210 206 199 197 202 203 201 199 202 203 215 218 210 209 213 218 211 222 228 234 231 237 245 238 241 259 272 250 248 265 259 254 259 264 263
238 230 215 215 203 205 205 212 210 204 202 208 213 216 214 210 214 214 216 217 222 230 233 231 234 239 247 245 267 274 258 247 247 258 262 269 271 269
234 232 232 216 215 216 219 212 214 211 206 212 212 213 210 211 214 217 218 223 224 232 236 235 240 257 246 253 258 260 263 266 267 260 251 256 268 273
239 235 232 226 225 223 221 219 209 206 208 211 213 215 210 217 220 220 218 219 230 231 233 237 239 247 247 238 246 260 269 268 273 257 247 246 255 263
242 240 233 219 224 222 211 212 208 207 212 212 212 216 205 221 215 216 220 227 236 240 225 236 238 234 250 248 255 252 272 267 269 261 258 269 273 272
Wind_Speed_850mb
17 20 19 17 16 16 18 21 24 27 27 24 20 37 34 29 35 8 23 21 20 19 12 8 9 10 14 22 27 28 28 29 30 32 35 37 40 56
21 25 21 15 17 16 15 19 22 25 27 11 21 24 26 22 30 19 27 24 20 16 8 4 2 3 3 6 12 20 26 32 33 32 32 33 35 39
31 30 27 28 22 15 16 20 22 23 24 13 20 25 28 27 25 20 22 13 19 14 12 7 2 2 3 2 1 3 9 14 20 24 29 34 37 38
35 33 30 27 28 27 21 24 23 25 27 28 20 24 28 36 35 26 13 10 25 17 15 14 9 6 5 4 6 9 10 10 9 11 18 25 28 30
36 33 31 29 30 20 24 23 25 28 29 26 31 24 16 26 27 25 26 17 17 28 25 21 17 13 11 11 8 6 7 8 10 11 10 14 18 20
40 35 31 30 28 25 28 29 25 26 26 31 25 24 28 29 25 23 20 21 19 19 19 20 18 18 19 18 16 13 11 11 13 13 12 11 13 18
45 43 39 37 32 26 19 22 25 30 26 27 31 29 32 31 33 27 23 20 26 22 20 20 20 14 12 11 17 19 17 17 17 16 17 13 11 11
54 52 43 44 38 31 26 34 34 38 37 30 33 37 39 37 31 31 29 28 25 24 28 24 17 15 17 17 17 18 24 25 25 25 24 20 15 12
56 54 56 51 48 38 31 29 43 49 46 45 41 34 41 45 34 40 32 29 26 20 23 24 24 21 20 29 31 30 32 32 33 30 25 24 23 20
67 67 70 58 49 35 31 27 35 53 57 55 54 39 34 43 50 42 37 42 27 23 23 22 24 18 18 26 28 26 10 8 10 12 15 18 22 25
82 82 75 60 56 62 61 88 67 56 50 57 58 44 42 46 45 34 33 31 31 29 28 25 22 19 17 18 19 9 4 3 7 11 12 14 20 28
89 93 85 75 88 84 79 79 68 55 54 47 53 54 52 55 44 42 34 36 32 27 31 26 22 21 20 23 20 19 17 13 17 15 21 24 22 24
94 97 93 83 78 79 63 62 57 51 50 51 40 53 57 56 50 50 43 38 31 29 30 27 24 22 21 13 21 22 17 22 22 20 24 24 24 30
78 90 89 69 75 72 66 69 64 56 54 53 36 42 45 45 46 56 49 51 25 28 30 31 23 22 23 24 24 20 19 23 24 22 22 25 28 26
73 82 68 55 45 60 55 66 66 60 49 39 41 45 46 45 40 43 50 50 47 39 32 35 37 26 23 23 24 23 22 26 27 29 31 21 26 26
84 69 60 36 47 65 63 65 61 60 56 50 50 46 46 45 48 46 42 38 43 37 45 45 37 34 33 28 31 30 30 28 22 33 27 27 26 28
75 69 54 49 68 73 72 73 70 60 54 56 60 49 48 51 49 49 47 40 43 40 36 38 40 40 39 37 37 36 36 39 32 34 32 31 26 28
54 63 57 61 64 68 77 79 80 73 68 68 57 55 54 53 52 49 49 49 44 40 45 43 44 38 35 39 43 38 37 34 34 37 35 30 33 30
55 61 57 58 65 68 70 80 97 93 86 83 77 61 58 62 57 56 54 46 49 48 48 45 45 45 42 38 29 38 42 35 30 33 33 38 40 33
66 67 62 67 75 80 74 86 86 89 87 81 76 75 64 67 66 61 56 54 50 49 48 42 40 46 50 36 37 34 25 28 29 33 35 38 40 42
72 73 77 77 76 78 76 83 84 84 88 81 75 83 76 68 62 64 57 53 48 48 49 51 47 46 41 36 38 40 38 45 40 40 39 37 37 41
68 75 77 84 88 85 82 80 84 81 88 95 93 81 78 67 71 64 55 51 56 58 54 44 37 39 38 45 42 44 40 40 48 45 48 47 47 45
65 70 82 83 85 84 83 84 91 95 98 100 82 83 69 69 72 67 59 62 56 60 40 45 41 36 42 43 46 37 45 41 39 45 52 50 48 49
Wind_Direction_850mb
228 233 237 234 246 248 247 238 244 259 245 197 201 212 220 237 251 247 266 284 298 305 310 292 274 260 247 243 244 245 248 251 252 250 249 250 247 243
224 236 243 229 244 247 237 230 230 242 266 227 211 203 220 231 254 200 235 275 290 296 289 290 323 328 299 269 254 251 251 252 254 254 253 254 255 253
220 231 251 246 238 241 234 219 220 223 232 255 198 180 193 206 230 211 249 262 291 302 257 251 257 1 25 27 343 254 249 256 258 260 260 258 257 258
232 236 249 252 251 228 221 226 224 224 220 231 225 236 229 221 226 220 212 243 255 267 291 251 256 285 316 337 9 9 7 359 335 278 255 256 259 259
231 238 246 249 252 238 240 233 239 227 231 221 227 218 229 206 217 208 211 215 225 255 267 258 247 267 290 297 292 311 320 329 332 330 304 271 265 273
230 230 240 246 250 252 232 234 224 232 233 226 228 224 210 212 209 209 218 208 227 251 252 256 254 262 265 274 265 275 289 308 329 333 325 304 267 260
226 231 234 243 248 248 241 251 231 237 233 234 232 225 213 208 208 212 222 219 221 209 243 255 248 271 273 281 261 262 275 285 296 314 320 321 310 282
224 226 218 235 240 236 234 223 228 226 232 242 236 231 227 219 213 213 220 219 228 235 221 226 228 232 249 252 246 272 284 282 285 288 292 288 293 299
231 220 225 230 234 230 226 222 231 236 233 222 237 232 229 221 217 212 214 221 219 228 218 216 217 220 223 252 269 278 278 281 288 288 277 269 265 275
227 229 230 235 244 245 242 248 252 241 239 225 225 231 226 227 212 227 215 223 210 213 227 214 209 212 214 245 264 280 273 294 295 290 287 279 270 264
231 238 243 248 248 240 261 282 260 239 232 234 222 225 225 229 218 207 212 203 204 207 225 210 209 211 226 232 261 252 275 310 352 337 344 336 293 276
235 248 248 263 245 246 275 268 244 232 213 228 225 220 224 227 226 197 204 197 200 204 212 210 211 205 223 224 232 262 295 295 321 326 344 345 349 338
246 243 240 246 239 260 257 235 244 228 211 211 220 219 224 225 220 204 195 200 217 222 209 203 210 214 232 224 224 235 252 261 292 308 309 309 320 341
247 246 245 243 271 264 242 241 236 210 204 211 214 208 219 212 210 204 196 201 201 209 190 189 201 214 228 238 242 234 250 249 264 257 281 292 301 305
248 234 249 269 255 237 225 214 202 201 192 205 200 205 214 207 210 213 219 211 209 220 212 207 212 214 228 246 258 264 255 253 252 265 274 254 285 277
244 246 261 258 223 211 207 203 197 207 192 203 197 214 213 211 211 212 217 224 222 227 228 228 230 229 230 241 250 257 258 257 262 276 253 256 273 267
235 243 242 226 217 221 212 197 197 200 202 206 204 210 219 215 215 214 216 219 223 224 231 231 236 241 244 242 248 253 264 271 264 271 261 264 259 269
236 240 236 224 209 205 194 191 196 197 203 203 205 219 218 215 212 212 215 219 221 227 230 228 235 238 241 248 252 258 257 258 264 271 238 259 270 273
240 240 223 210 206 199 197 202 203 201 199 202 203 215 218 210 209 213 218 211 222 228 234 231 237 245 238 241 259 272 250 248 265 259 254 259 264 263
238 230 215 215 203 205 205 212 210 204 202 208 213 216 214 210 214 214 216 217 222 230 233 231 234 239 247 245 267 274 258 247 247 258 262 269 271 269
234 232 232 216 215 216 219 212 214 211 206 212 212 213 210 211 214 217 218 223 224 232 236 235 240 257 246 253 258 260 263 266 267 260 251 256 268 273
239 235 232 226 225 223 221 219 209 206 208 211 213 215 210 217 220 220 218 219 230 231 233 237 239 247 247 238 246 260 269 268 273 257 247 246 255 263
242 240 233 219 224 222 211 212 208 207 212 212 212 216 205 221 215 216 220 227 236 240 225 236 238 234 250 248 255 252 272 267 269 261 258 269 273 272